Location: Brunembert
(50.7122°N, 1.8935°E)
Time: 16:08:45
(UTC+00:00)

Cosmos 1500 Rocket - Pass Details

Date: 02 August 2021
Orbit: 602 x 632 km, 82.5° (Epoch: 23 September)

Event Time Altitude Azimuth Distance (km) Brightness Sun altitude
Exits shadow 22:28:14 21° 217° (SW) 1,422 5.1 -18.9°
Maximum altitude 22:31:00 50° 285° (WNW) 806 4.3 -19.1°
Drops below altitude 10° 22:35:21 10° 1° (N) 2,020 7.2 -19.4°
Sets 22:37:41 0° 7° (N) 2,936 8.1 -19.5°
